TimeCDT,TemperatureF,Dew PointF,Humidity,Sea Level PressureIn,VisibilityMPH,Wind Direction,Wind SpeedMPH,Gust SpeedMPH,PrecipitationIn,Events,Conditions,WindDirDegrees,DateUTC
12:41 AM,73.4,73.4,100,29.88,6.0,NNW,6.9,-,N/A,,Mostly Cloudy,330,2012-10-15 05:41:00
1:40 AM,73.4,71.6,94,29.90,7.0,NNE,3.5,-,N/A,,Mostly Cloudy,30,2012-10-15 06:40:00
2:40 AM,73.4,71.6,94,29.88,7.0,North,4.6,-,N/A,,Mostly Cloudy,10,2012-10-15 07:40:00
3:40 AM,71.6,69.8,94,29.90,7.0,North,4.6,-,N/A,,Scattered Clouds,350,2012-10-15 08:40:00
4:40 AM,73.4,71.6,94,29.87,7.0,North,6.9,-,N/A,,Mostly Cloudy,10,2012-10-15 09:40:00
5:40 AM,71.6,69.8,94,29.87,7.0,Calm,Calm,-,N/A,,Scattered Clouds,0,2012-10-15 10:40:00
6:40 AM,73.4,71.6,94,29.84,7.0,NW,5.8,-,N/A,,Scattered Clouds,320,2012-10-15 11:40:00
7:44 AM,73.4,73.4,100,29.89,7.0,NNW,9.2,-,N/A,,Scattered Clouds,330,2012-10-15 12:44:00
8:47 AM,75.2,73.4,94,29.90,7.0,NNW,11.5,-,N/A,,Mostly Cloudy,330,2012-10-15 13:47:00
9:43 AM,77.0,73.4,89,29.95,7.0,NNW,11.5,-,N/A,,Mostly Cloudy,340,2012-10-15 14:43:00
10:41 AM,78.8,73.4,83,29.92,7.0,North,10.4,-,N/A,,Mostly Cloudy,350,2012-10-15 15:41:00
11:42 AM,80.6,73.4,79,29.91,7.0,NNW,10.4,-,N/A,,Mostly Cloudy,340,2012-10-15 16:42:00
12:43 PM,80.6,73.4,79,29.86,7.0,North,11.5,-,N/A,,Mostly Cloudy,10,2012-10-15 17:43:00
1:45 PM,82.4,71.6,70,29.86,7.0,North,9.2,-,N/A,,Mostly Cloudy,360,2012-10-15 18:45:00
2:41 PM,75.2,73.4,94,29.85,6.0,NE,9.2,-,N/A,,Overcast,40,2012-10-15 19:41:00
3:46 PM,73.4,73.4,100,29.86,7.0,ENE,3.5,-,N/A,,Overcast,60,2012-10-15 20:46:00
4:48 PM,77.0,73.4,89,29.82,7.0,East,3.5,-,N/A,,Mostly Cloudy,90,2012-10-15 21:48:00
5:52 PM,78.8,71.6,78,29.81,7.0,North,8.1,-,N/A,,Scattered Clouds,360,2012-10-15 22:52:00
6:54 PM,77.0,71.6,83,29.79,7.0,North,9.2,-,N/A,,Scattered Clouds,360,2012-10-15 23:54:00
7:46 PM,77.0,71.6,83,29.83,7.0,North,9.2,-,N/A,,Scattered Clouds,350,2012-10-16 00:46:00
8:52 PM,75.2,73.4,94,29.85,7.0,North,6.9,-,N/A,,Scattered Clouds,350,2012-10-16 01:52:00
9:44 PM,75.2,73.4,94,29.90,7.0,North,10.4,-,N/A,,Scattered Clouds,350,2012-10-16 02:44:00
10:41 PM,75.2,73.4,94,29.87,7.0,NNW,10.4,-,N/A,,Clear,330,2012-10-16 03:41:00
11:52 PM,75.2,73.4,94,29.87,7.0,NNW,8.1,-,N/A,,Clear,330,2012-10-16 04:52:00